Morgantown, WV

2:50 AM EST on November 20, 2017 (GMT -0500)
Morgantown Municipal-Hart

Weather History for KMGW - September, 2012

Change the Weather History Date:

Sunday, September 9, 2012

  Actual Average Record
Temperature  
Mean Temperature 64 °F 68 °F  
Max Temperature 72 °F 78 °F 98 °F (1939)
Min Temperature 55 °F 57 °F 40 °F (1937)
Degree Days  
Heating Degree Days 1 1  
Month to date heating degree days 1 9  
Since 1 July heating degree days 1 20  
Cooling Degree Days 0 4  
Month to date cooling degree days 94 43  
Year to date cooling degree days 1094 752  
Growing Degree Days 12 (Base 50)    
Moisture  
Dew Point 52 °F    
Average Humidity 72    
Maximum Humidity 100    
Minimum Humidity 44    
Precipitation  
Precipitation 0.01 in 0.10 in 1.54 in (2008)
Month to date precipitation 1.09 0.95  
Year to date precipitation 21.77 30.42  
Sea Level Pressure  
Sea Level Pressure 29.96 in    
Wind  
Wind Speed 4 mph (WSW)    
Max Wind Speed 12 mph    
Max Gust Speed 17 mph    
Visibility 10 miles    
Events      
T = Trace of Precipitation, MM = Missing Value Source: NWS Daily Summary

Daily Weather History Graph

Daily Weather History Graph

Search for Another Location

Airport or City:

Trip Planner

Search our weather history database for the weather conditions in past years. The results will help you decide how hot, cold, wet, or windy it might be!

Date:

Astronomy

Sep. 09, 2012 Rise Set
Actual Time 6:55 AM EDT 7:37 PM EDT
Civil Twilight 6:28 AM EDT 8:04 PM EDT
Nautical Twilight 5:56 AM EDT 8:36 PM EDT
Astronomical Twilight 5:23 AM EDT 9:09 PM EDT
Moon 12:24 AM EDT (9/9) 3:20 PM EDT (9/9)
Length of Visible Light 13h 35m
Length of Day
12h 41m
Last Quarter, 39% of the Moon is Illuminated
Sep 9
Last Quarter
Sep 15
New
Sep 22
First Quarter
Sep 29
Full
Oct 8
Last Quarter

Hourly Weather History & Observations

Time (EDT) Temp. Dew Point Humidity Pressure Visibility Wind Dir Wind Speed Gust Speed Precip Events Conditions
12:53 AM 57.0 °F 55.0 °F 93% 29.93 in 10.0 mi SSW 3.5 mph - N/A   Clear
1:53 AM 57.0 °F 55.0 °F 93% 29.92 in 10.0 mi South 4.6 mph - N/A   Partly Cloudy
2:53 AM 55.9 °F 54.0 °F 93% 29.91 in 10.0 mi SSW 3.5 mph - N/A   Clear
3:53 AM 55.9 °F 54.0 °F 93% 29.90 in 10.0 mi South 3.5 mph - N/A   Mostly Cloudy
4:53 AM 55.9 °F 54.0 °F 93% 29.90 in 10.0 mi SW 3.5 mph - N/A   Clear
5:07 AM 55.4 °F 53.6 °F 94% 29.92 in 10.0 mi Calm Calm - N/A   Scattered Clouds
5:15 AM 55.4 °F 53.6 °F 94% 29.92 in 10.0 mi Calm Calm - N/A   Mostly Cloudy
5:53 AM 55.9 °F 55.0 °F 97% 29.91 in 10.0 mi Calm Calm - 0.01 in   Overcast
6:53 AM 55.9 °F 55.0 °F 97% 29.93 in 10.0 mi Calm Calm - N/A   Overcast
7:53 AM 57.9 °F 55.0 °F 90% 29.94 in 10.0 mi SW 5.8 mph - N/A   Overcast
8:00 AM 57.2 °F 55.4 °F 94% 29.95 in 10.0 mi SW 3.5 mph - N/A   Overcast
8:53 AM 59.0 °F 55.0 °F 87% 29.96 in 10.0 mi SW 3.5 mph - N/A   Overcast
9:53 AM 61.0 °F 55.9 °F 83% 29.98 in 10.0 mi Variable 4.6 mph - N/A   Mostly Cloudy
10:03 AM 60.8 °F 55.4 °F 82% 29.98 in 10.0 mi Variable 4.6 mph - N/A   Mostly Cloudy
10:53 AM 64.0 °F 54.0 °F 70% 29.99 in 10.0 mi SW 4.6 mph - N/A   Partly Cloudy
11:53 AM 66.0 °F 52.0 °F 60% 29.98 in 10.0 mi West 5.8 mph - N/A   Mostly Cloudy
12:53 PM 66.9 °F 48.0 °F 51% 29.97 in 10.0 mi Variable 3.5 mph - N/A   Overcast
1:53 PM 69.1 °F 46.9 °F 45% 29.96 in 10.0 mi NW 5.8 mph - N/A   Overcast
2:53 PM 69.1 °F 48.0 °F 47% 29.96 in 10.0 mi West 5.8 mph - N/A   Overcast
3:53 PM 70.0 °F 48.0 °F 46% 29.96 in 10.0 mi West 6.9 mph - N/A   Mostly Cloudy
4:53 PM 69.1 °F 48.0 °F 47% 29.96 in 10.0 mi Variable 6.9 mph - N/A   Scattered Clouds
5:53 PM 69.1 °F 48.0 °F 47% 29.97 in 10.0 mi West 8.1 mph - N/A   Clear
6:53 PM 66.9 °F 50.0 °F 54% 29.98 in 10.0 mi West 4.6 mph - N/A   Mostly Cloudy
7:53 PM 66.0 °F 51.1 °F 59% 29.99 in 10.0 mi WNW 4.6 mph - N/A   Overcast
8:53 PM 62.1 °F 51.1 °F 67% 30.03 in 10.0 mi North 8.1 mph - N/A   Overcast
9:53 PM 61.0 °F 52.0 °F 72% 30.04 in 10.0 mi Calm Calm - N/A   Overcast
10:53 PM 61.0 °F 52.0 °F 72% 30.05 in 10.0 mi Calm Calm - N/A   Overcast
11:53 PM 57.9 °F 53.1 °F 84% 30.06 in 10.0 mi Calm Calm - N/A   Clear